Airfield :
LOGIN :

Register | Disclaimer

   EN    FR    IT 

 










Legend :    VFR   Marginal VFR   IFR   Intensive IFR   Very Intensive IFR
Visi :
Ceiling :
>= 8 km
>= 3000ft
5 to 8 km
1000 to 3000 ft
1500m to 5 km
500 to 1000 ft
800 to 1500m
200 to 500 ft
< 800m
< 200 ft
Symbols :   Thunderstorms  Fog  Heavy snow  Heavy precipitations  Wind > 20 kt
SIGMETs :     Misc.  Thunderstorms  Icing  Turbulence  Mountain Waves  Volcanic Ashes







- Airport Elevation : 388 ft
- IATA code : QYR
- Download approach charts


LFQB - Troyes Barberey

CURRENT METAR :
  • 201800Z AUTO 35005KT CAVOK 25/16 Q1020

EXPIRED METARs :
  • 201730Z AUTO 35006KT CAVOK 25/16 Q1020
  • 201700Z AUTO 35005KT CAVOK 25/16 Q1020
  • 201630Z AUTO 33005KT 300V360 9999 FEW049 26/16 Q1020
  • 201600Z AUTO 32006KT CAVOK 26/16 Q1020
  • 201530Z AUTO 33005KT 290V360 9999 FEW042 BKN049 26/16 Q1020

TAF N/A
No reported NOTAMs for that airfield.



MET'MAP, your aeronautical weather chart ! - Copyright ORBIFLY December 2007 - Disclaimer

ORBIFLY MET'MAP TEAM :

Programming & Development : Alexandra Zaïnal
Concept & Development : Baudouin d'Aumeries
Co-Development & Prog : Marc-Olivier Méhu
Technical & hardware support : Manuel Goepfert

Contact : metmap@orbifly.com




SOURCES & CREDITS :

   NOAA